1 Minute Report
Date Time Wind Direction Wind Speed Wind Gust Wind Variable Altimeter Temperature Dewpoint Relative Humidity Visibility Ceiling Precip Present Weather Density Alt Wind Chill Heat Index
18/07/23 11:19 000 00 N/A N/A 30.12 70(F), 21(C) 69(F), 21(C) 100% 10 CLR N/A N/A N/A 70 F N/A 1242
18/07/23 11:18 000 00 N/A N/A 30.12 70(F), 21(C) 69(F), 21(C) 100% 10 CLR N/A N/A N/A 70 F N/A 1241
18/07/23 11:17 000 00 N/A N/A 30.12 70(F), 21(C) 69(F), 21(C) 100% 10 CLR N/A N/A N/A 70 F N/A 1240
18/07/23 11:16 000 00 N/A N/A 30.12 70(F), 21(C) 69(F), 21(C) 100% 10 CLR N/A N/A N/A 70 F N/A 1239
18/07/23 11:15 000 00 N/A N/A 30.11 71(F), 22(C) 69(F), 21(C) 94% 10 CLR N/A N/A 2900 N/A 66 F 1238
18/07/23 11:14 000 00 N/A N/A 30.11 71(F), 22(C) 69(F), 21(C) 94% 10 CLR N/A N/A 2900 N/A 66 F 1237
18/07/23 11:13 000 00 N/A N/A 30.11 71(F), 22(C) 69(F), 21(C) 94% 10 CLR N/A N/A 2900 N/A 66 F 1236
18/07/23 11:12 000 00 N/A N/A 30.11 71(F), 22(C) 69(F), 21(C) 94% 10 CLR N/A N/A 2900 N/A 66 F 1235
18/07/23 11:11 000 00 N/A N/A 30.11 71(F), 22(C) 69(F), 21(C) 94% 10 CLR N/A N/A 2900 N/A 66 F 1234
18/07/23 11:10 000 00 N/A N/A 30.11 71(F), 22(C) 69(F), 21(C) 94% 10 CLR N/A N/A 2900 N/A 66 F 1233
18/07/23 11:09 000 00 N/A N/A 30.11 71(F), 22(C) 69(F), 21(C) 94% 10 CLR N/A N/A 2900 N/A 66 F 1232
18/07/23 11:08 000 00 N/A N/A 30.11 70(F), 21(C) 69(F), 21(C) 100% 10 CLR N/A N/A N/A 70 F N/A 1231
18/07/23 11:07 000 00 N/A N/A 30.11 70(F), 21(C) 69(F), 21(C) 100% 10 CLR N/A N/A N/A 70 F N/A 1230
18/07/23 11:06 000 00 N/A N/A 30.11 70(F), 21(C) 69(F), 21(C) 100% 10 CLR N/A N/A N/A 70 F N/A 1229
18/07/23 11:05 000 00 N/A N/A 30.11 70(F), 21(C) 69(F), 21(C) 100% 10 CLR N/A N/A N/A 70 F N/A 1228
18/07/23 11:04 000 00 N/A N/A 30.11 70(F), 21(C) 69(F), 21(C) 100% 10 CLR N/A N/A N/A 70 F N/A 1227
18/07/23 11:03 000 00 N/A N/A 30.11 70(F), 21(C) 69(F), 21(C) 100% 10 CLR N/A N/A N/A 70 F N/A 1226
18/07/23 11:02 200 03 N/A N/A 30.11 70(F), 21(C) 69(F), 21(C) 100% 10 CLR N/A N/A N/A 70 F N/A 1225
18/07/23 11:01 200 03 N/A N/A 30.11 70(F), 21(C) 69(F), 21(C) 100% 10 CLR N/A N/A N/A 70 F N/A 1224
18/07/23 11:00 200 03 N/A N/A 30.11 70(F), 21(C) 69(F), 21(C) 100% 10 CLR N/A N/A N/A 70 F N/A 1223
18/07/23 10:59 000 00 N/A N/A 30.11 70(F), 21(C) 69(F), 21(C) 100% 10 CLR N/A N/A N/A 70 F N/A 1222
18/07/23 10:58 000 00 N/A N/A 30.11 70(F), 21(C) 69(F), 21(C) 100% 10 CLR N/A N/A N/A 70 F N/A 1221
18/07/23 10:57 000 00 N/A N/A 30.11 70(F), 21(C) 69(F), 21(C) 100% 10 CLR N/A N/A N/A 70 F N/A 1220
18/07/23 10:56 000 00 N/A N/A 30.11 70(F), 21(C) 70(F), 21(C) 100% 10 CLR N/A N/A N/A 70 F N/A 1219
18/07/23 10:55 000 00 N/A N/A 30.11 70(F), 21(C) 70(F), 21(C) 100% 10 CLR N/A N/A N/A 70 F N/A 1218
18/07/23 10:54 000 00 N/A N/A 30.11 70(F), 21(C) 70(F), 21(C) 100% 10 CLR N/A N/A N/A 70 F N/A 1217
18/07/23 10:53 000 00 N/A N/A 30.11 70(F), 21(C) 70(F), 21(C) 100% 10 CLR N/A N/A N/A 70 F N/A 1216
18/07/23 10:52 000 00 N/A N/A 30.11 70(F), 21(C) 70(F), 21(C) 100% 10 CLR N/A N/A N/A 70 F N/A 1215
18/07/23 10:51 000 00 N/A N/A 30.11 70(F), 21(C) 70(F), 21(C) 100% 10 CLR N/A N/A N/A 70 F N/A 1214
18/07/23 10:50 000 00 N/A N/A 30.11 70(F), 21(C) 70(F), 21(C) 100% 10 CLR N/A N/A N/A 70 F N/A 1213
18/07/23 10:49 000 00 N/A N/A 30.11 70(F), 21(C) 70(F), 21(C) 100% 10 CLR N/A N/A N/A 70 F N/A 1212
18/07/23 10:48 000 00 N/A N/A 30.11 70(F), 21(C) 70(F), 21(C) 100% 10 CLR N/A N/A N/A 70 F N/A 1211
18/07/23 10:47 000 00 N/A N/A 30.11 70(F), 21(C) 70(F), 21(C) 100% 10 CLR N/A N/A N/A 70 F N/A 1210
18/07/23 10:46 210 03 N/A N/A 30.11 70(F), 21(C) 70(F), 21(C) 100% 10 CLR N/A N/A N/A 70 F N/A 1209
18/07/23 10:45 210 03 N/A N/A 30.11 70(F), 21(C) 70(F), 21(C) 100% 10 CLR N/A N/A N/A 70 F N/A 1208
18/07/23 10:44 200 03 N/A N/A 30.11 70(F), 21(C) 70(F), 21(C) 100% 10 CLR N/A N/A N/A 70 F N/A 1207
18/07/23 10:43 200 03 N/A N/A 30.11 70(F), 21(C) 70(F), 21(C) 100% 10 CLR N/A N/A N/A 70 F N/A 1206
18/07/23 10:42 200 03 N/A N/A 30.11 70(F), 21(C) 70(F), 21(C) 100% 10 CLR N/A N/A N/A 70 F N/A 1205
18/07/23 10:41 200 04 N/A N/A 30.11 70(F), 21(C) 70(F), 21(C) 100% 10 CLR N/A N/A N/A 70 F N/A 1204
18/07/23 10:40 200 04 N/A N/A 30.11 70(F), 21(C) 70(F), 21(C) 100% 10 CLR N/A N/A N/A 70 F N/A 1203
18/07/23 10:39 200 04 N/A N/A 30.11 70(F), 21(C) 70(F), 21(C) 100% 10 CLR N/A N/A N/A 70 F N/A 1202
18/07/23 10:38 200 04 N/A N/A 30.11 70(F), 21(C) 70(F), 21(C) 100% 10 CLR N/A N/A N/A 70 F N/A 1201
18/07/23 10:37 200 03 N/A N/A 30.11 70(F), 21(C) 70(F), 21(C) 100% 10 CLR N/A N/A N/A 70 F N/A 1200
18/07/23 10:36 200 03 N/A N/A 30.11 70(F), 21(C) 70(F), 21(C) 100% 10 CLR N/A N/A N/A 70 F N/A 1199
18/07/23 10:35 210 03 N/A N/A 30.11 70(F), 21(C) 70(F), 21(C) 100% 10 CLR N/A N/A N/A 70 F N/A 1198
18/07/23 10:34 000 00 N/A N/A 30.11 70(F), 21(C) 70(F), 21(C) 100% 10 CLR N/A N/A N/A 70 F N/A 1197
18/07/23 10:33 000 00 N/A N/A 30.11 70(F), 21(C) 70(F), 21(C) 100% 10 CLR N/A N/A N/A 70 F N/A 1196
18/07/23 10:32 000 00 N/A N/A 30.11 70(F), 21(C) 70(F), 21(C) 100% 10 CLR N/A N/A N/A 70 F N/A 1195
18/07/23 10:31 000 00 N/A N/A 30.11 70(F), 21(C) 69(F), 21(C) 100% 10 CLR N/A N/A N/A 70 F N/A 1194
18/07/23 10:30 000 00 N/A N/A 30.11 70(F), 21(C) 69(F), 21(C) 100% 10 CLR N/A N/A N/A 70 F N/A 1193
18/07/23 10:29 000 00 N/A N/A 30.11 70(F), 21(C) 69(F), 21(C) 100% 10 CLR N/A N/A N/A 70 F N/A 1192
18/07/23 10:28 000 00 N/A N/A 30.11 70(F), 21(C) 69(F), 21(C) 100% 10 SCT070 N/A N/A N/A 70 F N/A 1191
18/07/23 10:27 000 00 N/A N/A 30.11 70(F), 21(C) 69(F), 21(C) 100% 10 SCT070 N/A N/A N/A 70 F N/A 1190
18/07/23 10:26 210 03 N/A N/A 30.12 70(F), 21(C) 69(F), 21(C) 100% 10 SCT070 N/A N/A N/A 70 F N/A 1189
18/07/23 10:25 210 03 N/A N/A 30.12 70(F), 21(C) 70(F), 21(C) 100% 10 SCT070 N/A N/A N/A 70 F N/A 1188
18/07/23 10:24 210 03 N/A N/A 30.12 70(F), 21(C) 70(F), 21(C) 100% 10 SCT070 N/A N/A N/A 70 F N/A 1187
18/07/23 10:23 210 03 N/A N/A 30.12 70(F), 21(C) 70(F), 21(C) 100% 10 SCT070 N/A N/A N/A 70 F N/A 1186
18/07/23 10:22 000 00 N/A N/A 30.12 70(F), 21(C) 70(F), 21(C) 100% 10 SCT070 N/A N/A N/A 70 F N/A 1185
18/07/23 10:21 000 00 N/A N/A 30.13 70(F), 21(C) 70(F), 21(C) 100% 10 SCT070 N/A N/A N/A 70 F N/A 1184
18/07/23 10:20 000 00 N/A N/A 30.13 70(F), 21(C) 70(F), 21(C) 100% 10 SCT060 N/A N/A N/A 70 F N/A 1183
18/07/23 10:19 000 00 N/A N/A 30.13 70(F), 21(C) 70(F), 21(C) 100% 10 SCT060 N/A N/A N/A 70 F N/A 1182
18/07/23 10:18 000 00 N/A N/A 30.13 70(F), 21(C) 70(F), 21(C) 100% 10 SCT060 N/A N/A N/A 70 F N/A 1181
18/07/23 10:17 000 00 N/A N/A 30.13 70(F), 21(C) 70(F), 21(C) 100% 10 SCT060 N/A N/A N/A 70 F N/A 1180
18/07/23 10:16 000 00 N/A N/A 30.13 70(F), 21(C) 70(F), 21(C) 100% 10 SCT060 N/A N/A N/A 70 F N/A 1179
18/07/23 10:15 000 00 N/A N/A 30.13 70(F), 21(C) 69(F), 21(C) 100% 10 SCT060 N/A N/A N/A 70 F N/A 1178
18/07/23 10:14 000 00 N/A N/A 30.13 70(F), 21(C) 69(F), 21(C) 100% 10 SCT060 N/A N/A N/A 70 F N/A 1177
18/07/23 10:13 000 00 N/A N/A 30.13 70(F), 21(C) 69(F), 21(C) 100% 10 SCT060 N/A N/A N/A 70 F N/A 1176
18/07/23 10:12 000 00 N/A N/A 30.13 70(F), 21(C) 69(F), 21(C) 100% 10 SCT060 N/A N/A N/A 70 F N/A 1175
18/07/23 10:11 000 00 N/A N/A 30.13 70(F), 21(C) 69(F), 21(C) 100% 10 SCT060 N/A N/A N/A 70 F N/A 1174
18/07/23 10:10 000 00 N/A N/A 30.13 70(F), 21(C) 68(F), 20(C) 94% 10 SCT060 N/A N/A N/A 70 F N/A 1173
18/07/23 10:09 000 00 N/A N/A 30.13 70(F), 21(C) 68(F), 20(C) 94% 10 SCT060 N/A N/A N/A 70 F N/A 1172
18/07/23 10:08 000 00 N/A N/A 30.13 70(F), 21(C) 68(F), 20(C) 94% 10 SCT060 N/A N/A N/A 70 F N/A 1171
18/07/23 10:07 000 00 N/A N/A 30.13 70(F), 21(C) 68(F), 20(C) 94% 10 SCT060 N/A N/A N/A 70 F N/A 1170
18/07/23 10:06 000 00 N/A N/A 30.13 71(F), 22(C) 68(F), 20(C) 88% 10 SCT060 N/A N/A 2900 N/A 69 F 1169
18/07/23 10:05 000 00 N/A N/A 30.13 71(F), 22(C) 67(F), 19(C) 83% 10 SCT060 N/A N/A 2900 N/A 71 F 1168
18/07/23 10:04 000 00 N/A N/A 30.13 71(F), 22(C) 67(F), 19(C) 83% 10 SCT060 N/A N/A 2900 N/A 71 F 1167
18/07/23 10:03 000 00 N/A N/A 30.13 71(F), 22(C) 67(F), 19(C) 83% 10 SCT060 N/A N/A 2900 N/A 71 F 1166
18/07/23 10:02 000 00 N/A N/A 30.13 71(F), 22(C) 67(F), 19(C) 83% 10 SCT060 N/A N/A 2900 N/A 71 F 1165
18/07/23 10:01 000 00 N/A N/A 30.13 71(F), 22(C) 67(F), 19(C) 83% 10 SCT060 N/A N/A 2900 N/A 71 F 1164
18/07/23 10:00 000 00 N/A N/A 30.13 71(F), 22(C) 68(F), 20(C) 88% 10 SCT060 N/A N/A 2900 N/A 69 F 1163
18/07/23 09:59 000 00 N/A N/A 30.13 71(F), 22(C) 68(F), 20(C) 88% 10 SCT060 N/A N/A 2900 N/A 69 F 1162
18/07/23 09:58 000 00 N/A N/A 30.13 71(F), 22(C) 68(F), 20(C) 88% 10 SCT060 N/A N/A 2900 N/A 69 F 1161
18/07/23 09:57 000 00 N/A N/A 30.13 71(F), 22(C) 68(F), 20(C) 88% 10 SCT060 N/A N/A 2900 N/A 69 F 1160
18/07/23 09:56 000 00 N/A N/A 30.13 71(F), 22(C) 69(F), 21(C) 94% 10 SCT060 N/A N/A 2900 N/A 66 F 1159
18/07/23 09:55 000 00 N/A N/A 30.13 71(F), 22(C) 68(F), 20(C) 88% 10 SCT060 N/A N/A 2900 N/A 69 F 1158
18/07/23 09:54 000 00 N/A N/A 30.13 71(F), 22(C) 68(F), 20(C) 88% 10 SCT060 N/A N/A 2900 N/A 69 F 1157
18/07/23 09:53 000 00 N/A N/A 30.13 71(F), 22(C) 68(F), 20(C) 88% 10 SCT060 N/A N/A 2900 N/A 69 F 1156
18/07/23 09:52 000 00 N/A N/A 30.14 71(F), 22(C) 67(F), 19(C) 83% 10 SCT060 N/A N/A 2900 N/A 71 F 1155
18/07/23 09:51 000 00 N/A N/A 30.14 71(F), 22(C) 67(F), 19(C) 83% 10 SCT060 N/A N/A 2900 N/A 71 F 1154
18/07/23 09:50 000 00 N/A N/A 30.13 71(F), 22(C) 66(F), 19(C) 83% 10 SCT060 N/A N/A 2900 N/A 71 F 1153
18/07/23 09:49 000 00 N/A N/A 30.13 71(F), 22(C) 66(F), 19(C) 83% 10 SCT060 N/A N/A 2900 N/A 71 F 1152
18/07/23 09:48 000 00 N/A N/A 30.13 71(F), 22(C) 66(F), 19(C) 83% 10 CLR N/A N/A 2900 N/A 71 F 1151
18/07/23 09:47 000 00 N/A N/A 30.13 71(F), 22(C) 66(F), 19(C) 83% 10 SCT070 N/A N/A 2900 N/A 71 F 1150
18/07/23 09:46 000 00 N/A N/A 30.13 71(F), 22(C) 66(F), 19(C) 83% 10 SCT070 N/A N/A 2900 N/A 71 F 1149
18/07/23 09:45 000 00 N/A N/A 30.13 71(F), 22(C) 66(F), 19(C) 83% 10 SCT070 N/A N/A 2900 N/A 71 F 1148
18/07/23 09:44 000 00 N/A N/A 30.13 71(F), 22(C) 66(F), 19(C) 83% 10 SCT070 N/A N/A 2900 N/A 71 F 1147
18/07/23 09:43 000 00 N/A N/A 30.13 71(F), 22(C) 66(F), 19(C) 83% 10 SCT070 N/A N/A 2900 N/A 71 F 1146
18/07/23 09:42 000 00 N/A N/A 30.13 71(F), 22(C) 66(F), 19(C) 83% 10 SCT070 N/A N/A 2900 N/A 71 F 1145
18/07/23 09:41 000 00 N/A N/A 30.13 71(F), 22(C) 66(F), 19(C) 83% 10 SCT070 N/A N/A 2900 N/A 71 F 1144
18/07/23 09:40 000 00 N/A N/A 30.13 71(F), 22(C) 66(F), 19(C) 83% 10 SCT070 N/A N/A 2900 N/A 71 F 1143
18/07/23 09:39 000 00 N/A N/A 30.13 71(F), 22(C) 66(F), 19(C) 83% 10 SCT070 N/A N/A 2900 N/A 71 F 1142
18/07/23 09:38 000 00 N/A N/A 30.13 71(F), 22(C) 65(F), 18(C) 78% 10 SCT070 N/A N/A 2900 N/A 72 F 1141
18/07/23 09:37 000 00 N/A N/A 30.13 71(F), 22(C) 65(F), 18(C) 78% 10 SCT070 N/A N/A 2900 N/A 72 F 1140
18/07/23 09:36 000 00 N/A N/A 30.13 71(F), 22(C) 65(F), 18(C) 78% 10 SCT070 N/A N/A 2900 N/A 72 F 1139
18/07/23 09:35 000 00 N/A N/A 30.13 71(F), 22(C) 65(F), 18(C) 78% 10 SCT070 N/A N/A 2900 N/A 72 F 1138
18/07/23 09:34 000 00 N/A N/A 30.13 71(F), 22(C) 65(F), 18(C) 78% 10 SCT070 N/A N/A 2900 N/A 72 F 1137
18/07/23 09:33 000 00 N/A N/A 30.13 71(F), 22(C) 65(F), 18(C) 78% 10 SCT070 N/A N/A 2900 N/A 72 F 1136
18/07/23 09:32 000 00 N/A N/A 30.13 71(F), 22(C) 65(F), 18(C) 78% 10 SCT070 N/A N/A 2900 N/A 72 F 1135
18/07/23 09:31 000 00 N/A N/A 30.13 71(F), 22(C) 65(F), 18(C) 78% 10 SCT070 N/A N/A 2900 N/A 72 F 1134
18/07/23 09:30 000 00 N/A N/A 30.13 71(F), 22(C) 65(F), 18(C) 78% 10 SCT070 N/A N/A 2900 N/A 72 F 1133
18/07/23 09:29 000 00 N/A N/A 30.13 71(F), 22(C) 65(F), 18(C) 78% 10 SCT070 N/A N/A 2900 N/A 72 F 1132
18/07/23 09:28 000 00 N/A N/A 30.13 72(F), 22(C) 65(F), 18(C) 78% 10 SCT070 N/A N/A 3000 N/A 73 F 1131
18/07/23 09:27 350 03 N/A N/A 30.13 72(F), 22(C) 65(F), 18(C) 78% 10 SCT070 N/A N/A 3000 N/A 73 F 1130
18/07/23 09:26 360 04 N/A N/A 30.13 72(F), 22(C) 65(F), 18(C) 78% 10 SCT070 N/A N/A 3000 N/A 73 F 1129
18/07/23 09:25 360 04 N/A N/A 30.13 72(F), 22(C) 65(F), 18(C) 78% 10 SCT070 N/A N/A 3000 N/A 73 F 1128
18/07/23 09:24 360 03 N/A N/A 30.13 72(F), 22(C) 65(F), 18(C) 78% 10 SCT070 N/A N/A 3000 N/A 73 F 1127
18/07/23 09:23 360 03 N/A N/A 30.13 71(F), 22(C) 65(F), 18(C) 78% 10 SCT070 N/A N/A 2900 N/A 72 F 1126
18/07/23 09:22 360 03 N/A N/A 30.13 71(F), 22(C) 65(F), 18(C) 78% 10 SCT070 N/A N/A 2900 N/A 72 F 1125
18/07/23 09:21 010 04 N/A N/A 30.13 71(F), 22(C) 65(F), 18(C) 78% 10 SCT070 N/A N/A 2900 N/A 72 F 1124
18/07/23 09:20 010 04 N/A N/A 30.13 71(F), 22(C) 65(F), 18(C) 78% 10 SCT070 N/A N/A 2900 N/A 72 F 1123
18/07/23 09:19 010 04 N/A N/A 30.13 71(F), 22(C) 65(F), 18(C) 78% 10 SCT070 N/A N/A 2900 N/A 72 F 1122